This is the latest recevied weather packets stored in our database for station/object W0AKO. If no packets are shown the sender has not sent any weather packets the latest 10 day(s).
| Time | Temp. | Humidity | Pressure | Rain* | Wind** | Luminosity | Snow |
|---|---|---|---|---|---|---|---|
| 1777861119 | 24.44° C | 10% | 1009.8 hPa | 0 mm | - | 1 W/m² | - |
| 1777860817 | 24.44° C | 10% | 1009.7 hPa | 0 mm | - | 0 W/m² | - |
| 1777860514 | 24.44° C | 10% | 1009.9 hPa | 0 mm | - | 2 W/m² | - |
| 1777860211 | 24.44° C | 10% | 1009.8 hPa | 0 mm | - | 3 W/m² | - |
| 1777859906 | 25° C | 10% | 1010.2 hPa | 0 mm | - | 3 W/m² | - |
| 1777859603 | 25° C | 10% | 1010.1 hPa | 0 mm | - | 6 W/m² | - |
| 1777859300 | 25° C | 10% | 1009.9 hPa | 0 mm | - | 10 W/m² | - |
| 1777858995 | 25° C | 10% | 1009.7 hPa | 0 mm | - | 13 W/m² | - |
| 1777858693 | 25° C | 10% | 1009.9 hPa | 0 mm | - | 16 W/m² | - |
| 1777858391 | 25.56° C | 10% | 1010.2 hPa | 0 mm | - | 17 W/m² | - |
| 1777858088 | 25° C | 10% | 1009.9 hPa | 0 mm | - | 23 W/m² | - |
| 1777857786 | 25° C | 10% | 1009.9 hPa | 0 mm | - | 23 W/m² | - |
| 1777857483 | 25° C | 10% | 1009.9 hPa | 0 mm | - | 22 W/m² | - |
| 1777857178 | 25° C | 10% | 1010.2 hPa | 0 mm | - | 23 W/m² | - |
| 1777856875 | 25.56° C | 10% | 1010.1 hPa | 0 mm | - | 15 W/m² | - |
| 1777856570 | 25.56° C | 10% | 1010.3 hPa | 0 mm | - | 11 W/m² | - |
| 1777856267 | 25.56° C | 10% | 1010.2 hPa | 0 mm | - | 19 W/m² | - |
| 1777855964 | 25.56° C | 10% | 1009.9 hPa | 0 mm | - | 23 W/m² | - |
| 1777855662 | 25.56° C | 10% | 1010.3 hPa | 0 mm | - | 24 W/m² | - |
| 1777855359 | 25.56° C | 10% | 1010.3 hPa | 0 mm | - | 31 W/m² | - |
| 1777855055 | 25.56° C | 10% | 1010.1 hPa | 0 mm | - | 26 W/m² | - |
| 1777854753 | 25° C | 10% | 1010.1 hPa | 0 mm | - | 23 W/m² | - |
| 1777854449 | 25° C | 10% | 1010.1 hPa | 0 mm | - | 26 W/m² | - |
| 1777854146 | 25.56° C | 10% | 1010.1 hPa | 0 mm | - | 16 W/m² | - |
| 1777853844 | 26.11° C | 10% | 1010.3 hPa | 0 mm | - | 14 W/m² | - |
* Rain latest hour (hover to see other rain measurements)
** Current wind speed in m/s (hover to see current wind gust speed)